EJU927Y LFBO-LFPO

Flight info

Callsign EJU927Y
Flight time 0h 55m
Altitude 26000
Route FISTO DCT PERIG DCT DIBAG DCT TUDRA DCT BEVOL/N0376F240 UT158 AMB
Aircraft A320/M-SDE3FGHIRWY/LB1

Departure

Time 2026-05-04 16:43
Airport Toulouse-Blagnac Airport (LFBO)

Arrival

Time 2026-05-04 17:38
Airport Paris-Orly Airport (LFPO)
Time Latitude Longitude Altitude Speed Heading
2026-05-04 16:19 43.62980 1.37318 494 ft 0 kts 44°
2026-05-04 16:33 43.62976 1.37313 485 ft 4 kts 44°
2026-05-04 16:33 43.62937 1.37262 483 ft 3 kts 44°
2026-05-04 16:34 43.62935 1.37215 485 ft 4 kts 142°
2026-05-04 16:34 43.62955 1.37195 486 ft 2 kts 143°
2026-05-04 16:35 43.62956 1.37193 486 ft 0 kts 143°
2026-05-04 16:37 43.62940 1.37209 487 ft 3 kts 148°
2026-05-04 16:38 43.62878 1.37158 488 ft 9 kts 238°
2026-05-04 16:39 43.62716 1.37135 486 ft 9 kts 143°
2026-05-04 16:39 43.62621 1.37234 489 ft 8 kts 143°
2026-05-04 16:40 43.62499 1.37363 487 ft 16 kts 142°
2026-05-04 16:40 43.62335 1.37536 489 ft 14 kts 143°
2026-05-04 16:41 43.62189 1.37675 490 ft 12 kts 163°
2026-05-04 16:41 43.62124 1.37440 488 ft 14 kts 324°
2026-05-04 16:42 43.63693 1.35821 942 ft 147 kts 321°
2026-05-04 16:43 43.65335 1.34057 2261 ft 164 kts 320°
2026-05-04 16:43 43.67341 1.31820 3026 ft 211 kts 320°
2026-05-04 16:43 43.68555 1.30469 3587 ft 236 kts 320°
2026-05-04 16:44 43.74176 1.26008 6746 ft 273 kts 345°
2026-05-04 16:45 43.77978 1.25014 8552 ft 286 kts 356°
2026-05-04 16:46 43.84222 1.24833 10561 ft 326 kts 356°
2026-05-04 16:46 43.88936 1.24682 11865 ft 347 kts 357°
2026-05-04 16:47 43.93846 1.24517 13422 ft 358 kts 357°
2026-05-04 16:47 43.98899 1.24344 14803 ft 369 kts 357°
2026-05-04 16:48 44.06737 1.24077 16835 ft 383 kts 357°
2026-05-04 16:48 44.09422 1.23985 17498 ft 388 kts 357°
2026-05-04 16:49 44.14855 1.23798 18723 ft 397 kts 357°
2026-05-04 16:49 44.20437 1.23598 19850 ft 406 kts 357°
2026-05-04 16:50 44.26148 1.23408 20998 ft 414 kts 357°
2026-05-04 16:50 44.31956 1.23214 22076 ft 422 kts 357°
2026-05-04 16:51 44.37878 1.23006 23131 ft 429 kts 357°
2026-05-04 16:51 44.40881 1.22902 23624 ft 433 kts 357°
2026-05-04 16:51 44.46918 1.22337 24556 ft 436 kts 347°
2026-05-04 16:52 44.52795 1.20131 25407 ft 440 kts 342°
2026-05-04 16:52 44.55754 1.18972 25830 ft 442 kts 342°
2026-05-04 16:53 44.61566 1.16702 27275 ft 431 kts 343°
2026-05-04 16:53 44.70041 1.13403 29627 ft 414 kts 343°
2026-05-04 16:54 44.72845 1.12309 29870 ft 423 kts 342°
2026-05-04 16:55 44.84759 1.07610 29903 ft 456 kts 343°
2026-05-04 16:55 44.90883 1.05199 29902 ft 457 kts 343°
2026-05-04 16:56 45.06172 0.99157 29909 ft 455 kts 343°
2026-05-04 16:57 45.15347 0.95732 29902 ft 455 kts 347°
2026-05-04 16:58 45.20621 0.94327 29915 ft 455 kts 349°
2026-05-04 17:00 45.39207 0.89596 29927 ft 450 kts 348°
2026-05-04 17:01 45.54552 0.85391 29921 ft 448 kts 348°
2026-05-04 17:02 45.66768 0.82072 29931 ft 446 kts 348°
2026-05-04 17:03 45.75905 0.79584 29920 ft 445 kts 348°
2026-05-04 17:03 45.85139 0.78689 29931 ft 444 kts
2026-05-04 17:04 45.97493 0.78585 29909 ft 446 kts 360°
2026-05-04 17:05 46.09913 0.78472 29899 ft 447 kts 360°
2026-05-04 17:06 46.19245 0.78391 29902 ft 447 kts 359°
2026-05-04 17:07 46.27546 0.78316 29894 ft 449 kts 359°
2026-05-04 17:07 46.34844 0.78252 29898 ft 449 kts 359°
2026-05-04 17:08 46.44244 0.78163 29900 ft 451 kts 359°
2026-05-04 17:09 46.50522 0.78117 29902 ft 451 kts 359°
2026-05-04 17:09 46.56721 0.78959 29904 ft 451 kts 13°
2026-05-04 17:10 46.72066 0.83813 29893 ft 452 kts 12°
2026-05-04 17:11 46.78211 0.85764 29899 ft 452 kts 12°
2026-05-04 17:12 46.87431 0.88678 29912 ft 452 kts 12°
2026-05-04 17:13 47.02786 0.93591 29749 ft 450 kts 12°
2026-05-04 17:14 47.11841 0.96472 28898 ft 442 kts 12°
2026-05-04 17:14 47.14844 0.97430 28620 ft 440 kts 12°
2026-05-04 17:14 47.20748 0.99314 27676 ft 430 kts 12°
2026-05-04 17:15 47.23661 1.00247 27179 ft 425 kts 12°
2026-05-04 17:15 47.29389 1.02093 26206 ft 417 kts 12°
2026-05-04 17:16 47.34998 1.03899 25271 ft 409 kts 12°
2026-05-04 17:16 47.43217 1.06623 23878 ft 398 kts 17°
2026-05-04 17:17 47.45833 1.07934 23418 ft 395 kts 19°
2026-05-04 17:17 47.53546 1.11892 22041 ft 387 kts 19°
2026-05-04 17:18 47.56077 1.13181 21599 ft 384 kts 19°
2026-05-04 17:18 47.61099 1.15726 20739 ft 378 kts 19°
2026-05-04 17:19 47.66013 1.18217 19876 ft 373 kts 19°
2026-05-04 17:19 47.70929 1.20715 19035 ft 369 kts 19°
2026-05-04 17:20 47.75719 1.23167 18199 ft 364 kts 19°
2026-05-04 17:20 47.80479 1.25603 17343 ft 359 kts 19°
2026-05-04 17:20 47.82833 1.26811 16926 ft 356 kts 18°
2026-05-04 17:21 47.87470 1.29199 16130 ft 349 kts 19°
2026-05-04 17:21 47.92029 1.31538 15342 ft 344 kts 19°
2026-05-04 17:22 47.94288 1.32696 14951 ft 342 kts 19°
2026-05-04 17:22 47.96532 1.33849 14563 ft 340 kts 19°
2026-05-04 17:23 48.03124 1.37260 13840 ft 322 kts 19°
2026-05-04 17:23 48.05203 1.38364 13716 ft 312 kts 23°
2026-05-04 17:23 48.08801 1.41600 13425 ft 294 kts 34°
2026-05-04 17:24 48.10473 1.43292 13244 ft 288 kts 34°
2026-05-04 17:24 48.15369 1.48239 12377 ft 282 kts 34°
2026-05-04 17:25 48.16993 1.49881 12084 ft 280 kts 35°
2026-05-04 17:25 48.20198 1.53129 11518 ft 277 kts 35°
2026-05-04 17:26 48.23364 1.56334 11067 ft 272 kts 35°
2026-05-04 17:26 48.27911 1.60947 10531 ft 254 kts 36°
2026-05-04 17:27 48.30689 1.63776 10114 ft 235 kts 35°
2026-05-04 17:27 48.33367 1.66496 9475 ft 231 kts 34°
2026-05-04 17:28 48.36067 1.69065 8866 ft 229 kts 28°
2026-05-04 17:29 48.40330 1.72186 7985 ft 226 kts 27°
2026-05-04 17:29 48.44342 1.75879 6678 ft 241 kts 44°
2026-05-04 17:30 48.48262 1.81504 5353 ft 266 kts 44°
2026-05-04 17:31 48.50912 1.85331 5092 ft 263 kts 44°
2026-05-04 17:31 48.54611 1.90638 4722 ft 227 kts 44°
2026-05-04 17:32 48.56812 1.93817 4468 ft 222 kts 44°
2026-05-04 17:33 48.59925 1.98380 4130 ft 237 kts 50°
2026-05-04 17:33 48.60835 2.00394 4021 ft 229 kts 60°
2026-05-04 17:34 48.62978 2.06378 3968 ft 209 kts 62°
2026-05-04 17:34 48.63663 2.08294 3773 ft 206 kts 61°
2026-05-04 17:35 48.65704 2.14005 2973 ft 207 kts 61°
2026-05-04 17:35 48.67078 2.17855 2424 ft 209 kts 62°
2026-05-04 17:35 48.67754 2.19753 2140 ft 201 kts 62°
2026-05-04 17:36 48.68398 2.21561 1889 ft 186 kts 62°
2026-05-04 17:36 48.68980 2.23198 1660 ft 165 kts 62°
2026-05-04 17:36 48.69496 2.24644 1387 ft 149 kts 61°
2026-05-04 17:36 48.69967 2.25978 1198 ft 140 kts 61°
2026-05-04 17:37 48.70424 2.27273 997 ft 141 kts 61°
2026-05-04 17:37 48.70903 2.28603 845 ft 147 kts 60°
2026-05-04 17:37 48.71365 2.29909 657 ft 138 kts 61°
2026-05-04 17:37 48.71824 2.31196 462 ft 138 kts 61°
2026-05-04 17:38 48.72267 2.32451 307 ft 135 kts 60°
2026-05-04 17:38 48.72649 2.33528 298 ft 91 kts 62°
2026-05-04 17:38 48.72883 2.34193 297 ft 60 kts 62°
2026-05-04 17:38 48.73010 2.34678 295 ft 42 kts 82°
2026-05-04 17:39 48.73042 2.35141 292 ft 12 kts 93°
2026-05-04 17:39 48.73015 2.35251 295 ft 11 kts 104°
2026-05-04 17:39 48.73020 2.35357 295 ft 10 kts 72°
2026-05-04 17:40 48.73051 2.35440 293 ft 9 kts 54°
2026-05-04 17:40 48.73082 2.35511 297 ft 8 kts 57°
2026-05-04 17:40 48.73102 2.35579 295 ft 7 kts 87°
2026-05-04 17:40 48.73072 2.35622 295 ft 6 kts 154°
2026-05-04 17:41 48.73066 2.35670 295 ft 5 kts 69°
2026-05-04 17:41 48.73072 2.35714 292 ft 4 kts 114°
2026-05-04 17:41 48.73050 2.35721 293 ft 3 kts 188°
2026-05-04 17:41 48.73027 2.35715 293 ft 3 kts 189°
2026-05-04 17:42 48.73005 2.35709 291 ft 3 kts 189°
2026-05-04 17:42 48.72991 2.35706 291 ft 0 kts 189°